Location: Azul
(36.7830°S, 59.8500°W)
Time: 09:09:29
(UTC-03:00)

ISS - Pass Details

Date: 07 December 2019
Orbit: 411 x 421 km, 51.6° (Epoch: 11 December)

Event Time Altitude Azimuth Distance (km) Brightness Sun altitude
Exits shadow 03:26:43 - 235° (SW) 1,876 -0.5 -20.2°
Reaches altitude 10° 03:29:16 10° 198° (SSW) 1,528 -0.5 -19.8°
Maximum altitude 03:29:20 10° 197° (SSW) 1,528 -0.5 -19.8°
Drops below altitude 10° 03:29:24 10° 196° (SSW) 1,528 -0.5 -19.8°
Sets 03:33:47 0° 143° (SE) 2,394 1.8 -19.3°
